Location: Cz?stochówka
(50.8142°N, 19.0915°E)
Time: 19:28:08
(UTC+00:00)

CZ-4 R/B - Pass Details

Date: 13 January 2026
Orbit: 676 x 743 km, 98.7° (Epoch: 13 February)

Event Time Altitude Azimuth Distance (km) Brightness Sun altitude
Rises 04:21:23 0° 14° (NNE) 3,083 7.2 -21.3°
Reaches altitude 10° 04:23:37 10° 13° (NNE) 2,171 6.4 -20.9°
Maximum altitude 04:28:22 77° 288° (WNW) 732 3.7 -20.2°
Drops below altitude 10° 04:33:11 10° 203° (SSW) 2,198 6.2 -19.4°
Sets 04:35:27 0° 202° (SSW) 3,124 7.1 -19.1°
